Location: Milano
(45.4670°N, 9.2000°E)
Time: 19:53:50
(UTC+02:00)

ISS - Pass Details

Date: 19 May 2021
Orbit: 417 x 422 km, 51.6° (Epoch: 14 June)

Event Time Altitude Azimuth Distance (km) Brightness Sun altitude
Rises 02:06:09 0° 299° (WNW) 2,372 0.3 -23.9°
Reaches altitude 10° 02:08:16 10° 302° (WNW) 1,506 -0.7 -23.8°
Enters shadow 02:09:02 16° 304° (NW) 1,199 -1.2 -23.8°
